User: anonymous   Login
Location: Unspecified
(0.0000°N, 0.0000°E)
Time: 15:00:44
(UTC+00:00)
Language:

AGILE - Orbit

View from above orbital plane
View from above orbital plane
View from above satellite
View from above satellite

Ground track
Ground track

The orbit data is extracted from the following two-line orbital elements,

1 31135U 07013A   15184.99427978  .00004131  00000-0  11739-3 0  9991
2 31135 002.4670 254.9904 0013945 076.1533 284.0072 15.25307951454288
Epoch (UTC): 03 July 2015 23:51:45
Eccentricity: 0.0013945
inclination: 2.4670°
perigee height: 480 km
apogee height: 499 km
right ascension of ascending node: 254.9904°
argument of perigee: 76.1533°
revolutions per day: 15.25307951
mean anomaly at epoch: 284.0072°
orbit number at epoch: 45428

The dashed part of the orbit path shows where the satellite is in the earth's shadow,  

DLR